Burns Flat, OK

10:15 AM CST on February 25, 2017 (GMT -0600)
Clinton-Sherman

Weather History for KCSM - December, 2012

Change the Weather History Date:

Saturday, December 1, 2012

  Actual Average Record
Temperature  
Mean Temperature 60 °F -  
Max Temperature 75 °F 53 °F 75 °F (2012)
Min Temperature 46 °F 33 °F 10 °F (2006)
Degree Days  
Heating Degree Days 4    
Growing Degree Days 10 (Base 50)    
Moisture  
Dew Point 37 °F    
Average Humidity 51    
Maximum Humidity 86    
Minimum Humidity 20    
Precipitation  
Precipitation 0.00 in - - ()
Sea Level Pressure  
Sea Level Pressure 29.87 in    
Wind  
Wind Speed 15 mph (SSW)    
Max Wind Speed 22 mph    
Max Gust Speed 29 mph    
Visibility 10 miles    
Events      
Averages and records for this station are not official NWS values.
T = Trace of Precipitation, MM = Missing Value Source: NWS Daily Summary

Daily Weather History Graph

Daily Weather History Graph

Search for Another Location

Airport or City:

Trip Planner

Search our weather history database for the weather conditions in past years. The results will help you decide how hot, cold, wet, or windy it might be!

Date:

Astronomy

Dec. 01, 2012 Rise Set
Actual Time 7:27 AM CST 5:24 PM CST
Civil Twilight 6:59 AM CST 5:52 PM CST
Nautical Twilight 6:28 AM CST 6:23 PM CST
Astronomical Twilight 5:57 AM CST 6:54 PM CST
Moon 8:13 PM CST (12/1) 9:43 AM CST (12/1)
Length of Visible Light 10h 52m
Length of Day
9h 56m
Waning Gibbous, 91% of the Moon is Illuminated
Dec 1
Waning Gibbous
Dec 6
Last Quarter
Dec 13
New
Dec 19
First Quarter
Dec 28
Full

Hourly Weather History & Observations

Time (CST) Temp. Dew Point Humidity Pressure Visibility Wind Dir Wind Speed Gust Speed Precip Events Conditions
12:53 AM 55.0 °F 48.0 °F 77% 29.88 in 10.0 mi South 16.1 mph - N/A   Clear
3:53 AM 48.0 °F 44.1 °F 86% 29.84 in 9.0 mi South 13.8 mph - N/A   Clear
4:53 AM 50.0 °F 43.0 °F 77% 29.84 in 10.0 mi South 13.8 mph - N/A   Clear
6:53 AM 48.0 °F 42.1 °F 80% 29.86 in 10.0 mi South 15.0 mph - N/A   Clear
7:53 AM 48.0 °F 42.1 °F 80% 29.86 in 10.0 mi South 17.3 mph - N/A   Clear
8:53 AM 50.0 °F 42.1 °F 74% 29.87 in 10.0 mi SSW 16.1 mph - N/A   Clear
9:53 AM 55.0 °F 44.1 °F 67% 29.86 in 10.0 mi SSW 20.7 mph - N/A   Clear
10:53 AM 62.1 °F 43.0 °F 50% 29.86 in 10.0 mi SSW 21.9 mph 28.8 mph N/A   Clear
11:53 AM 68.0 °F 37.9 °F 33% 29.85 in 10.0 mi SSW 21.9 mph - N/A   Clear
12:53 PM 73.0 °F 36.0 °F 26% 29.82 in 10.0 mi SSW 19.6 mph 25.3 mph N/A   Clear
1:53 PM 75.0 °F 32.0 °F 21% 29.81 in 10.0 mi SSW 15.0 mph 21.9 mph N/A   Clear
2:53 PM 75.0 °F 30.9 °F 20% 29.80 in 10.0 mi South 17.3 mph - N/A   Clear
3:53 PM 73.9 °F 33.1 °F 22% 29.81 in 10.0 mi South 13.8 mph - N/A   Clear
4:53 PM 71.1 °F 34.0 °F 26% 29.82 in 10.0 mi SSE 10.4 mph - N/A   Clear
5:53 PM 61.0 °F 33.1 °F 35% 29.84 in 10.0 mi SSE 5.8 mph - N/A   Clear
6:53 PM 57.0 °F 32.0 °F 39% 29.86 in 10.0 mi South 8.1 mph - N/A   Clear
7:53 PM 54.0 °F 32.0 °F 43% 29.91 in 10.0 mi NNW 13.8 mph - N/A   Clear
8:53 PM 54.0 °F 30.9 °F 41% 29.93 in 10.0 mi NNW 12.7 mph - N/A   Clear
9:53 PM 46.9 °F 32.0 °F 56% 29.95 in 10.0 mi North 9.2 mph - N/A   Clear
10:53 PM 48.9 °F 34.0 °F 56% 29.96 in 10.0 mi NNW 9.2 mph - N/A   Clear
11:53 PM 48.0 °F 34.0 °F 58% 29.96 in 10.0 mi NNW 10.4 mph - N/A   Clear